Date String (YYYY-MM-DD hh:mm:ss) UTC,Instrument flags,Ambient pressure (hPa),Sample flow (lpm),Bypass flow (lpm),Sample temperature (°C),Ambient temperature (°C),ASC tube jacket temperature (°C),LED temperature (°C),Box temperature (°C),Sample RH (%),Span deviation,Mass concentration (μg/m³),Mass concentration (μg/m³),Mass concentration (μg/m³)
DateTimeUTC,F1_M11,P_M11,Q1_M11,Q2_M11,T1_M11,T2_M11,T3_M11,T4_M11,T5_M11,U1_M11,ZSPAN_M11,X0_M11,X2_M11,X1_M11
2022-06-06 11:00:00,,0821.5,4.99,0.00,30.4,29.3,00.0,39.3,32.2,22.7,0000.0,0010.00,0004.14,0002.84
2022-06-06 11:01:00,,0821.5,5.00,0.00,30.4,29.3,00.0,39.3,32.2,23.3,0000.0,0009.80,0004.10,0002.87
2022-06-06 11:02:00,,0821.5,5.00,0.00,30.4,29.3,00.0,39.3,32.2,23.2,0000.0,0009.82,0004.14,0002.90
2022-06-06 11:03:00,,0821.5,5.00,0.00,30.4,29.3,00.0,39.3,32.2,22.9,0000.0,0009.93,0004.20,0002.93
2022-06-06 11:04:00,,0821.6,5.01,0.00,30.4,29.3,00.0,39.3,32.2,22.5,0000.0,0009.82,0004.18,0002.93
2022-06-06 11:05:00,,0821.6,5.00,0.00,30.4,29.3,00.0,39.3,32.2,22.4,0000.0,0010.11,0004.18,0002.94
2022-06-06 11:06:00,,0821.7,5.01,0.00,30.4,29.3,00.0,39.3,32.2,22.4,0000.0,0009.45,0004.16,0002.93
2022-06-06 11:07:00,,0821.7,5.00,0.00,30.4,29.3,00.0,39.3,32.2,22.5,0000.0,0009.32,0004.14,0002.93
2022-06-06 11:08:00,,0821.7,4.99,0.00,30.4,29.3,00.0,39.3,32.2,22.2,0000.0,0009.32,0004.15,0002.95
2022-06-06 11:09:00,,0821.6,5.01,0.00,30.4,29.3,00.0,39.3,32.2,22.0,0000.0,0009.90,0004.16,0002.91
2022-06-06 11:10:00,,0821.5,5.00,0.00,30.4,29.3,00.0,39.3,32.2,22.2,0000.0,0010.04,0004.11,0002.86
2022-06-06 11:11:00,,0821.5,4.99,0.00,30.4,29.3,00.0,39.3,32.2,21.9,0000.0,0010.39,0004.09,0002.81
2022-06-06 11:12:00,,0821.6,4.99,0.00,30.4,29.2,00.0,39.3,32.2,21.9,0000.0,0010.65,0004.09,0002.76
2022-06-06 11:13:00,,0821.6,5.00,0.00,30.4,29.2,00.0,39.3,32.2,21.7,0000.0,0010.78,0004.06,0002.70
2022-06-06 11:14:00,,0821.5,5.01,0.00,30.4,29.2,00.0,39.3,32.2,21.8,0000.0,0011.00,0004.01,0002.64
2022-06-06 11:15:00,,0821.5,4.99,0.00,30.4,29.2,00.0,39.3,32.2,21.6,0000.0,0010.90,0003.94,0002.59
2022-06-06 11:16:00,,0821.6,5.00,0.00,30.4,29.2,00.0,39.3,32.2,21.6,0000.0,0011.14,0003.89,0002.55
2022-06-06 11:17:00,,0821.6,5.00,0.00,30.4,29.2,00.0,39.3,32.2,21.5,0000.0,0011.25,0003.89,0002.53
2022-06-06 11:18:00,,0821.7,4.99,0.00,30.4,29.2,00.0,39.3,32.2,21.5,0000.0,0011.81,0003.89,0002.51
2022-06-06 11:19:00,,0821.7,5.01,0.00,30.4,29.2,00.0,39.3,32.2,21.5,0000.0,0011.87,0003.90,0002.49
2022-06-06 11:20:00,,0821.7,4.99,0.00,30.4,29.2,00.0,39.3,32.2,21.6,0000.0,0011.52,0003.95,0002.50
2022-06-06 11:21:00,,0821.8,4.99,0.00,30.4,29.2,00.0,39.3,32.2,21.7,0000.0,0011.14,0003.91,0002.50
2022-06-06 11:22:00,,0821.8,5.02,0.00,30.4,29.2,00.0,39.3,32.2,22.1,0000.0,0010.70,0003.89,0002.49
2022-06-06 11:23:00,,0821.7,4.99,0.00,30.4,29.1,00.0,39.3,32.2,22.0,0000.0,0010.52,0003.88,0002.46
2022-06-06 11:24:00,,0821.6,5.01,0.00,30.4,29.1,00.0,39.3,32.2,21.6,0000.0,0010.28,0003.85,0002.45
2022-06-06 11:25:00,,0821.6,5.00,0.00,30.4,29.1,00.0,39.3,32.1,21.5,0000.0,0009.83,0003.84,0002.47
2022-06-06 11:26:00,,0821.6,4.99,0.00,30.4,29.1,00.0,39.3,32.1,21.6,0000.0,0009.88,0003.91,0002.50
2022-06-06 11:27:00,,0821.7,5.01,0.00,30.4,29.1,00.0,39.3,32.1,21.5,0000.0,0009.27,0003.96,0002.51
2022-06-06 11:28:00,,0821.7,5.00,0.00,30.4,29.1,00.0,39.3,32.1,21.4,0000.0,0009.21,0003.96,0002.51
2022-06-06 11:29:00,,0821.8,5.01,0.00,30.4,29.1,00.0,39.3,32.1,21.3,0000.0,0008.62,0003.91,0002.49
2022-06-06 11:30:00,,0821.9,4.99,0.00,30.4,29.1,00.0,39.3,32.1,21.4,0000.0,0008.73,0003.85,0002.46
2022-06-06 11:31:00,,0822.2,4.99,0.00,30.4,29.1,00.0,39.3,32.1,21.5,0000.0,0008.81,0003.80,0002.44
2022-06-06 11:32:00,,0821.9,5.02,0.00,30.3,29.1,00.0,39.3,32.1,21.4,0000.0,0009.33,0003.83,0002.44
2022-06-06 11:33:00,,0821.9,4.99,0.00,30.3,29.1,00.0,39.3,32.1,21.7,0000.0,0009.50,0003.87,0002.47
2022-06-06 11:34:00,,0822.0,5.01,0.00,30.3,29.1,00.0,39.3,32.1,22.1,0000.0,0009.42,0003.85,0002.48
2022-06-06 11:35:00,,0822.0,5.00,0.00,30.3,29.1,00.0,39.3,32.1,21.8,0000.0,0009.44,0003.87,0002.46
2022-06-06 11:36:00,,0821.9,5.01,0.00,30.3,29.1,00.0,39.3,32.1,21.3,0000.0,0009.50,0003.90,0002.44
2022-06-06 11:37:00,,0821.9,5.01,0.00,30.3,29.1,00.0,39.3,32.1,21.5,0000.0,0009.54,0003.90,0002.40
2022-06-06 11:38:00,,0821.9,4.99,0.00,30.3,29.1,00.0,39.3,32.1,21.4,0000.0,0009.55,0003.89,0002.40
2022-06-06 11:39:00,,0821.9,5.01,0.00,30.3,29.1,00.0,39.3,32.1,21.1,0000.0,0009.18,0003.83,0002.40
2022-06-06 11:40:00,,0821.9,5.00,0.00,30.3,29.1,00.0,39.3,32.1,21.1,0000.0,0009.19,0003.85,0002.41
2022-06-06 11:41:00,,0822.0,4.99,0.00,30.3,29.1,00.0,39.3,32.1,21.1,0000.0,0008.95,0003.86,0002.42
2022-06-06 11:42:00,,0822.1,5.00,0.00,30.3,29.1,00.0,39.3,32.1,21.2,0000.0,0008.65,0003.88,0002.44
2022-06-06 11:43:00,,0822.1,5.01,0.00,30.3,29.2,00.0,39.3,32.1,21.3,0000.0,0008.19,0003.88,0002.46
2022-06-06 11:44:00,,0822.1,5.00,0.00,30.3,29.1,00.0,39.3,32.1,21.5,0000.0,0008.17,0003.89,0002.47
2022-06-06 11:45:00,,0822.1,4.99,0.00,30.3,29.1,00.0,39.3,32.1,21.3,0000.0,0008.21,0003.90,0002.49
2022-06-06 11:46:00,,0822.1,5.00,0.00,30.3,29.1,00.0,39.3,32.1,21.3,0000.0,0008.24,0003.90,0002.53
2022-06-06 11:47:00,,0822.1,5.01,0.00,30.3,29.1,00.0,39.3,32.1,21.3,0000.0,0008.14,0003.84,0002.54
2022-06-06 11:48:00,,0822.1,5.00,0.00,30.3,29.1,00.0,39.3,32.1,21.3,0000.0,0008.13,0003.84,0002.56
2022-06-06 11:49:00,,0822.1,5.00,0.00,30.3,29.1,00.0,39.2,32.1,21.4,0000.0,0008.19,0003.83,0002.56
2022-06-06 11:50:00,,0822.1,5.00,0.00,30.3,29.2,00.0,39.2,32.1,21.4,0000.0,0008.35,0003.87,0002.57
2022-06-06 11:51:00,,0822.2,4.99,0.00,30.3,29.2,00.0,39.2,32.1,21.3,0000.0,0008.84,0003.88,0002.57
2022-06-06 11:52:00,,0822.2,5.01,0.00,30.3,29.2,00.0,39.2,32.1,21.3,0000.0,0009.45,0003.87,0002.57
2022-06-06 11:53:00,,0822.3,4.99,0.00,30.3,29.2,00.0,39.2,32.1,21.2,0000.0,0009.62,0003.90,0002.58
2022-06-06 11:54:00,,0822.3,5.00,0.00,30.3,29.2,00.0,39.3,32.1,21.1,0000.0,0010.13,0003.91,0002.58
2022-06-06 11:55:00,,0822.3,5.01,0.00,30.3,29.2,00.0,39.2,32.1,21.2,0000.0,0010.35,0003.89,0002.56
2022-06-06 11:56:00,,0822.3,4.99,0.00,30.3,29.2,00.0,39.2,32.1,21.2,0000.0,0010.60,0003.92,0002.56
2022-06-06 11:57:00,,0822.4,5.00,0.00,30.3,29.1,00.0,39.3,32.1,21.0,0000.0,0010.57,0003.90,0002.53
2022-06-06 11:58:00,,0822.3,5.00,0.00,30.3,29.1,00.0,39.2,32.1,21.0,0000.0,0010.71,0003.90,0002.52
2022-06-06 11:59:00,,0822.3,5.01,0.00,30.3,29.2,00.0,39.2,32.1,21.2,0000.0,0010.71,0003.91,0002.50
